YAOGAN 11

Satellite information

Favourite Embed

Satellite Type and Status

PAYLOADIN ORBIT

Key statistics

Satellite YAOGAN 11 at a glance.

Uptime

5509

Days in orbit

Revolutions

≈ 14.8

Per day

Orbit

SSO

Sun Synchronous Orbit

Inclination

98.4

Latest

Satellite identification and parameters

Extended collection of information and parameters for YAOGAN 11.

Object identification

Identified? True

Debris? False

Object name: YAOGAN 11

International designator: 2010-047A

Object number (NORAD): 37165

Object ID (CCSDS): 37165

Country: PEOPLES REPUBLIC OF CHINA (PRC)

Current information (Y/N): Y

RCS size: LARGE

Orbital parameters

Period: 97.201 minutes

Inclination: 98.413 deg

SMA: 7002.822 km

Apoapsis: 648.483 km

Periapsis: 600.891 km

RAAN: 143.0312 deg

Eccentricy: 0.00339802

Argument of periapsis: 292.5027 deg

Mean anomaly: 67.2588 deg

Mean motion: 14.81470982 rev/day

Mean motion (dot): 0.00001968 rev/day2

B* drag term: 0.0002563987 1/REarth

Two-line elements (TLE)

Creation date: Oct. 20, 2025, 6:08 p.m.

Reference frame: TEME

Reference center: EARTH

Epoch: Oct. 20, 2025, 2:33 p.m. UTC

TLE line 0: 0 YAOGAN 11

TLE line 1: 1 37165U 10047A 25293.60653628 .00001968 00000-0 25640-3 0 9995

TLE line 2: 2 37165 98.4130 143.0312 0033980 292.5027 67.2588 14.81470982812611

Live tracking on map

Real-time ground track for satellite YAOGAN 11.

In-orbit conjunctions

There are no conjunctions computed for YAOGAN 11, at the moment. Check back to stay up to date, as we update our databases every day.

Go to all conjunctions

Associated space launch

YAOGAN 11 was lifted into orbit during the mission ‘Long March 2D | Yaogan-11, Zheda Pixing 1B & Zheda Pixing 1C’, on board a Long March 2D space rocket.

The launch took place on Sept. 22, 2010, 2:42 a.m. from Launch Area 4 (SLS-2 / 603).

For more information about the launch, click the button.

Launch to space Long March 2D | Yaogan-11, Zheda Pixing 1B & Zheda Pixing 1C
Long March 2D | Yaogan-11, Zheda Pixing 1B & Zheda Pixing 1C

Agency: N/A

Status: Launch Successful

Launch date: Sept. 22, 2010, 2:42 a.m. UTC

Rocket: Long March 2D

Launch pad: Launch Area 4 (SLS-2 / 603)

Location: Jiuquan Satellite Launch Center, People's Republic of China

...

Latest news about this satellite

There are no fresh news available about this satellite. Check back as we update our databases every day.


Newsletter sign-up

Weekly statistics, charts and insights to help you stay on top of the space industry.